Weather History for Bentonville, AR

Change the Weather History Date:

Sunday, April 14, 2013

  Actual Average Record
Temperature  
Mean Temperature 66 °F -  
Max Temperature 78 °F 69 °F 85 °F (1954)
Min Temperature 53 °F 43 °F 24 °F (1957)
Growing Degree Days 16 (Base 50)    
Moisture  
Dew Point 46 °F    
Average Humidity 48    
Maximum Humidity 67    
Minimum Humidity 32    
Precipitation  
Precipitation 0.00 in - - ()
Sea Level Pressure  
Sea Level Pressure 29.66 in    
Wind  
Wind Speed 12 mph (South)    
Max Wind Speed 21 mph    
Max Gust Speed 33 mph    
Visibility 10 miles    
Events      
Averages and records for this station are not official NWS values.
T = Trace of Precipitation, MM = Missing Value Source: NWS Daily Summary

Daily Weather History Graph

Daily Weather History Graph

Search for Another Location

Airport:

Trip Planner

Search our weather history database for the weather conditions in past years. The results will help you decide how hot, cold, wet, or windy it might be!

Date:

Astronomy

Apr. 14, 2013 Rise Set
Actual Time 6:44 AM CDT 7:50 PM CDT
Civil Twilight 6:17 AM CDT 8:16 PM CDT
Nautical Twilight 5:46 AM CDT 8:48 PM CDT
Astronomical Twilight 5:13 AM CDT 9:21 PM CDT
Moon 9:26 AM CDT (4/14) 11:59 PM CDT (4/14)
Length of Visible Light 13h 58m
Length of Day
13h 05m
Waxing Crescent, 17% of the Moon is Illuminated
Apr 14
Waxing Crescent
Apr 18
First Quarter
Apr 25
Full
May 2
Last Quarter
May 9
New

Hourly Weather History & Observations

Time (CDT) Temp. Dew Point Humidity Pressure Visibility Wind Dir Wind Speed Gust Speed Precip Events Conditions
12:15 AM 57.2 °F 42.8 °F 59% 29.79 in 10.0 mi SSE 11.5 mph - N/A   Clear
12:35 AM 57.2 °F 42.8 °F 59% 29.79 in 10.0 mi SSE 12.7 mph - N/A   Clear
12:55 AM 57.2 °F 42.8 °F 59% 29.78 in 10.0 mi SSE 13.8 mph - N/A   Clear
1:15 AM 57.2 °F 42.8 °F 59% 29.78 in 10.0 mi SSE 11.5 mph - N/A   Clear
1:35 AM 57.2 °F 42.8 °F 59% 29.78 in 10.0 mi SSE 10.4 mph - N/A   Clear
1:55 AM 55.4 °F 42.8 °F 63% 29.77 in 10.0 mi SSE 9.2 mph - N/A   Clear
2:15 AM 55.4 °F 42.8 °F 63% 29.76 in 10.0 mi SSE 9.2 mph - N/A   Clear
2:35 AM 53.6 °F 42.8 °F 67% 29.76 in 10.0 mi SSE 9.2 mph - N/A   Clear
2:55 AM 55.4 °F 42.8 °F 63% 29.74 in 10.0 mi SSE 9.2 mph - N/A   Clear
3:15 AM 57.2 °F 44.6 °F 63% 29.74 in 10.0 mi South 10.4 mph - N/A   Clear
3:35 AM 59.0 °F 44.6 °F 59% 29.73 in 10.0 mi South 10.4 mph - N/A   Clear
3:55 AM 59.0 °F 44.6 °F 59% 29.73 in 10.0 mi South 11.5 mph - N/A   Clear
4:15 AM 59.0 °F 44.6 °F 59% 29.72 in 10.0 mi South 10.4 mph 16.1 mph N/A   Clear
4:35 AM 57.2 °F 44.6 °F 63% 29.71 in 10.0 mi South 10.4 mph - N/A   Clear
4:55 AM 57.2 °F 44.6 °F 63% 29.70 in 10.0 mi South 9.2 mph - N/A   Clear
5:15 AM 57.2 °F 44.6 °F 63% 29.70 in 10.0 mi South 8.1 mph - N/A   Clear
5:35 AM 55.4 °F 44.6 °F 67% 29.70 in 10.0 mi South 10.4 mph - N/A   Clear
5:55 AM 57.2 °F 44.6 °F 63% 29.70 in 10.0 mi South 16.1 mph 19.6 mph N/A   Clear
6:15 AM 57.2 °F 44.6 °F 63% 29.70 in 10.0 mi SSE 11.5 mph - N/A   Clear
6:35 AM 57.2 °F 44.6 °F 63% 29.70 in 10.0 mi South 13.8 mph 19.6 mph N/A   Clear
7:15 AM 60.8 °F 44.6 °F 55% 29.70 in 10.0 mi South 13.8 mph - N/A   Clear
7:35 AM 60.8 °F 46.4 °F 59% 29.70 in 10.0 mi South 10.4 mph - N/A   Clear
7:55 AM 62.6 °F 44.6 °F 52% 29.70 in 10.0 mi South 10.4 mph 16.1 mph N/A   Clear
8:15 AM 62.6 °F 44.6 °F 52% 29.69 in 10.0 mi South 15.0 mph 19.6 mph N/A   Clear
8:35 AM 64.4 °F 44.6 °F 49% 29.69 in 10.0 mi South 12.7 mph 17.3 mph N/A   Clear
8:55 AM 66.2 °F 46.4 °F 49% 29.69 in 10.0 mi South 11.5 mph 17.3 mph N/A   Clear
9:15 AM 66.2 °F 44.6 °F 46% 29.70 in 10.0 mi South 15.0 mph 19.6 mph N/A   Clear
9:35 AM 68.0 °F 44.6 °F 43% 29.69 in 10.0 mi South 13.8 mph 20.7 mph N/A   Clear
9:55 AM 69.8 °F 44.6 °F 40% 29.69 in 10.0 mi South 15.0 mph 23.0 mph N/A   Clear
10:15 AM 69.8 °F 46.4 °F 43% 29.69 in 10.0 mi South 18.4 mph 21.9 mph N/A   Clear
10:35 AM 69.8 °F 46.4 °F 43% 29.69 in 10.0 mi South 12.7 mph 21.9 mph N/A   Clear
10:55 AM 71.6 °F 44.6 °F 38% 29.68 in 10.0 mi South 19.6 mph 31.1 mph N/A   Clear
11:15 AM 71.6 °F 44.6 °F 38% 29.67 in 10.0 mi South 18.4 mph 33.4 mph N/A   Clear
11:35 AM 71.6 °F 44.6 °F 38% 29.67 in 10.0 mi South 20.7 mph 31.1 mph N/A   Clear
11:55 AM 71.6 °F 44.6 °F 38% 29.66 in 10.0 mi South 18.4 mph 26.5 mph N/A   Clear
12:15 PM 73.4 °F 44.6 °F 36% 29.65 in 10.0 mi South 18.4 mph 27.6 mph N/A   Clear
12:35 PM 73.4 °F 44.6 °F 36% 29.65 in 10.0 mi South 17.3 mph 24.2 mph N/A   Clear
12:55 PM 73.4 °F 44.6 °F 36% 29.64 in 10.0 mi South 16.1 mph 25.3 mph N/A   Clear
1:15 PM 73.4 °F 44.6 °F 36% 29.63 in 10.0 mi South 18.4 mph 26.5 mph N/A   Clear
1:35 PM 73.4 °F 46.4 °F 38% 29.61 in 10.0 mi SSE 17.3 mph 23.0 mph N/A   Clear
1:55 PM 73.4 °F 46.4 °F 38% 29.61 in 10.0 mi South 18.4 mph 24.2 mph N/A   Clear
2:15 PM 75.2 °F 48.2 °F 38% 29.60 in 10.0 mi South 17.3 mph 25.3 mph N/A   Clear
2:35 PM 75.2 °F 46.4 °F 36% 29.58 in 10.0 mi South 18.4 mph 27.6 mph N/A   Clear
3:15 PM 77.0 °F 48.2 °F 36% 29.56 in 10.0 mi SSE 19.6 mph 24.2 mph N/A   Clear
3:35 PM 77.0 °F 48.2 °F 36% 29.56 in 10.0 mi South 13.8 mph 20.7 mph N/A   Clear
3:55 PM 78.8 °F 46.4 °F 32% 29.56 in 10.0 mi SSW 15.0 mph 21.9 mph N/A   Clear
4:15 PM 78.8 °F 46.4 °F 32% 29.56 in 10.0 mi South 18.4 mph 24.2 mph N/A   Clear
4:35 PM 78.8 °F 48.2 °F 34% 29.56 in 10.0 mi SSW 16.1 mph 23.0 mph N/A   Clear
4:55 PM 77.0 °F 48.2 °F 36% 29.56 in 10.0 mi South 17.3 mph 23.0 mph N/A   Clear
5:15 PM 77.0 °F 48.2 °F 36% 29.55 in 10.0 mi South 10.4 mph 21.9 mph N/A   Clear
5:35 PM 77.0 °F 48.2 °F 36% 29.56 in 10.0 mi South 16.1 mph 25.3 mph N/A   Clear
5:55 PM 75.2 °F 46.4 °F 36% 29.56 in 10.0 mi South 13.8 mph 23.0 mph N/A   Clear
6:15 PM 75.2 °F 48.2 °F 38% 29.56 in 10.0 mi South 15.0 mph 20.7 mph N/A   Clear
6:35 PM 75.2 °F 46.4 °F 36% 29.57 in 10.0 mi SSW 12.7 mph 19.6 mph N/A   Clear
6:55 PM 75.2 °F 48.2 °F 38% 29.57 in 10.0 mi South 11.5 mph - N/A   Clear
7:15 PM 73.4 °F 48.2 °F 41% 29.58 in 10.0 mi South 9.2 mph - N/A   Clear
7:35 PM 71.6 °F 46.4 °F 41% 29.59 in 10.0 mi South 9.2 mph - N/A   Clear
7:55 PM 71.6 °F 46.4 °F 41% 29.60 in 10.0 mi South 8.1 mph - N/A   Clear
8:15 PM 69.8 °F 46.4 °F 43% 29.62 in 10.0 mi South 6.9 mph - N/A   Scattered Clouds
8:35 PM 69.8 °F 46.4 °F 43% 29.62 in 10.0 mi South 6.9 mph - N/A   Overcast
8:55 PM 68.0 °F 48.2 °F 49% 29.63 in 10.0 mi South 8.1 mph - N/A   Scattered Clouds
9:15 PM 66.2 °F 48.2 °F 52% 29.64 in 10.0 mi South 9.2 mph - N/A   Scattered Clouds
9:35 PM 66.2 °F 48.2 °F 52% 29.64 in 10.0 mi South 9.2 mph - N/A   Partly Cloudy
9:55 PM 66.2 °F 48.2 °F 52% 29.65 in 10.0 mi South 8.1 mph - N/A   Clear
10:15 PM 66.2 °F 48.2 °F 52% 29.65 in 10.0 mi South 8.1 mph - N/A   Clear
10:35 PM 66.2 °F 48.2 °F 52% 29.66 in 10.0 mi South 8.1 mph - N/A   Clear
10:55 PM 64.4 °F 48.2 °F 56% 29.66 in 10.0 mi South 8.1 mph - N/A   Clear
11:15 PM 66.2 °F 48.2 °F 52% 29.67 in 10.0 mi South 6.9 mph - N/A   Clear
11:35 PM 64.4 °F 50.0 °F 59% 29.66 in 10.0 mi South 6.9 mph - N/A   Clear
11:55 PM 64.4 °F 50.0 °F 59% 29.67 in 10.0 mi South 6.9 mph - N/A   Clear